• In Romania
  • List of Countries
  • For 7 days
  • Water Temperature
  • Satellite Maps
  • Weather Map
  • Weather Widgets
  • user-avatar
    Login

    Hourly Weather Ischgl

    Today, 22 July, Saturday

    Time Temperature Precipitation Wind Pressure Humidity
    00:00 +7°C° 0.4 mm 2 mps 576 mmHg 90%
    01:00 +7°C° 0 mm 2 mps 576 mmHg 91%
    02:00 +7°C° 0.3 mm 2 mps 576 mmHg 91%
    03:00 +7°C° 0.3 mm 2 mps 576 mmHg 92%
    04:00 +7°C° 0.3 mm 1 mps 576 mmHg 92%
    05:00 +8°C° 0.1 mm 1 mps 576 mmHg 90%
    06:00 +9°C° 0.1 mm 1 mps 577 mmHg 87%
    07:00 +9°C° 0 mm 1 mps 577 mmHg 86%
    08:00 +11°C° 0.1 mm 1 mps 578 mmHg 80%
    09:00 +12°C° 0.1 mm 1 mps 579 mmHg 73%
    10:00 +14°C° 0.1 mm 1 mps 579 mmHg 66%
    11:00 +14°C° 0.4 mm 1 mps 579 mmHg 66%
    12:00 +14°C° 0.4 mm 1 mps 580 mmHg 65%
    13:00 +15°C° 0.4 mm 1 mps 580 mmHg 65%
    14:00 +15°C° 1 mm 1 mps 580 mmHg 67%
    15:00 +15°C° 1 mm 1 mps 579 mmHg 69%
    16:00 +15°C° 1 mm 1 mps 579 mmHg 71%
    17:00 +14°C° 1.1 mm 1 mps 579 mmHg 75%
    18:00 +13°C° 1.1 mm 1 mps 579 mmHg 80%
    19:00 +12°C° 1.1 mm 1 mps 578 mmHg 85%
    20:00 +11°C° 0.7 mm 1 mps 578 mmHg 87%
    21:00 +10°C° 0.7 mm 1 mps 578 mmHg 90%
    22:00 +9°C° 0.7 mm 1 mps 578 mmHg 92%
    23:00 +9°C° 1 mm 1 mps 578 mmHg 93%

    Tomorrow, 23 July, Sunday

    Time Temperature Precipitation Wind Pressure Humidity
    00:00 +9°C° 1 mm 1 mps 578 mmHg 94%
    01:00 +9°C° 1 mm 1 mps 578 mmHg 94%
    02:00 +8°C° 0.5 mm 1 mps 577 mmHg 94%
    03:00 +8°C° 0.5 mm 1 mps 577 mmHg 93%
    04:00 +7°C° 0.5 mm 0 mps 577 mmHg 92%
    05:00 +8°C° 0 mm 1 mps 578 mmHg 89%
    06:00 +9°C° 0 mm 1 mps 578 mmHg 87%
    07:00 +10°C° 0 mm 1 mps 579 mmHg 84%
    08:00 +11°C° 0.1 mm 1 mps 579 mmHg 79%
    09:00 +12°C° 0.1 mm 1 mps 580 mmHg 74%
    10:00 +13°C° 0.1 mm 1 mps 580 mmHg 69%
    11:00 +13°C° 0.5 mm 1 mps 580 mmHg 71%
    12:00 +13°C° 0.5 mm 2 mps 580 mmHg 74%
    13:00 +13°C° 0.5 mm 2 mps 579 mmHg 77%
    14:00 +12°C° 0.7 mm 2 mps 579 mmHg 80%
    15:00 +12°C° 0.7 mm 2 mps 579 mmHg 82%
    16:00 +12°C° 0.7 mm 2 mps 578 mmHg 85%
    17:00 +10°C° 0.5 mm 2 mps 578 mmHg 88%
    18:00 +10°C° 0.5 mm 1 mps 578 mmHg 90%
    19:00 +10°C° 0.5 mm 1 mps 578 mmHg 92%
    20:00 +9°C° 0.5 mm 1 mps 577 mmHg 94%
    21:00 +9°C° 0.5 mm 1 mps 577 mmHg 96%
    22:00 +8°C° 0.5 mm 1 mps 577 mmHg 97%
    23:00 +8°C° 0.4 mm 1 mps 576 mmHg 97%

    Day after tomorrow, 24 July, Monday

    Time Temperature Precipitation Wind Pressure Humidity
    00:00 +7°C° 0.4 mm 1 mps 576 mmHg 97%
    01:00 +6°C° 0.4 mm 0 mps 576 mmHg 97%
    02:00 +6°C° 0.5 mm 0 mps 575 mmHg 97%
    03:00 +6°C° 0.5 mm 0 mps 574 mmHg 97%
    04:00 +5°C° 0.5 mm 0 mps 574 mmHg 97%
    05:00 +7°C° 0.4 mm 1 mps 574 mmHg 94%
    06:00 +8°C° 0.4 mm 1 mps 574 mmHg 92%
    07:00 +9°C° 0.4 mm 1 mps 574 mmHg 90%
    08:00 +9°C° 0.7 mm 1 mps 574 mmHg 86%
    09:00 +10°C° 0.7 mm 1 mps 574 mmHg 82%
    10:00 +10°C° 0.7 mm 2 mps 574 mmHg 78%
    11:00 +9°C° 1.5 mm 2 mps 574 mmHg 82%
    12:00 +8°C° 1.5 mm 2 mps 573 mmHg 85%
    13:00 +8°C° 1.5 mm 2 mps 573 mmHg 88%
    14:00 +7°C° 2.9 mm 2 mps 572 mmHg 90%
    15:00 +6°C° 2.9 mm 2 mps 572 mmHg 92%
    16:00 +6°C° 2.9 mm 2 mps 571 mmHg 94%
    17:00 +5°C° 3.1 mm 2 mps 571 mmHg 95%
    18:00 +3°C° 3.1 mm 3 mps 571 mmHg 97%
    19:00 +2°C° 3.1 mm 3 mps 571 mmHg 98%
    20:00 +2°C° 1.8 mm 3 mps 571 mmHg 97%
    21:00 +2°C° 1.8 mm 3 mps 571 mmHg 97%
    22:00 +1°C° 1.8 mm 3 mps 571 mmHg 96%
    23:00 +2°C° 0.3 mm 2 mps 571 mmHg 96%

    25 July, Tuesday

    Time Temperature Precipitation Wind Pressure Humidity
    00:00 +2°C° 0.3 mm 2 mps 570 mmHg 95%
    01:00 +2°C° 0.3 mm 2 mps 570 mmHg 95%
    02:00 +1°C° 0.2 mm 2 mps 570 mmHg 95%
    03:00 +1°C° 0.2 mm 2 mps 570 mmHg 95%
    04:00 +1°C° 0.2 mm 2 mps 569 mmHg 96%
    05:00 +1°C° 0.5 mm 2 mps 569 mmHg 95%
    06:00 +1°C° 0.5 mm 2 mps 570 mmHg 93%
    07:00 +2°C° 0.5 mm 2 mps 570 mmHg 92%
    08:00 +2°C° 0.6 mm 2 mps 570 mmHg 90%
    09:00 +3°C° 0.6 mm 2 mps 570 mmHg 88%
    10:00 +3°C° 0.6 mm 2 mps 570 mmHg 86%
    11:00 +4°C° 0.4 mm 2 mps 571 mmHg 82%
    12:00 +5°C° 0.4 mm 2 mps 571 mmHg 79%
    13:00 +5°C° 0.4 mm 2 mps 571 mmHg 76%
    14:00 +6°C° 0.3 mm 2 mps 571 mmHg 74%
    15:00 +6°C° 0.3 mm 2 mps 571 mmHg 72%
    16:00 +6°C° 0.3 mm 2 mps 571 mmHg 70%
    17:00 +6°C° 0.2 mm 2 mps 571 mmHg 74%
    18:00 +5°C° 0.2 mm 2 mps 570 mmHg 78%
    19:00 +4°C° 0.2 mm 2 mps 570 mmHg 82%
    20:00 +3°C° 0.1 mm 2 mps 570 mmHg 86%
    21:00 +3°C° 0.1 mm 1 mps 570 mmHg 90%
    22:00 +2°C° 0.1 mm 1 mps 569 mmHg 94%
    23:00 +2°C° 0.2 mm 1 mps 570 mmHg 94%

    26 July, Wednesday

    Time Temperature Precipitation Wind Pressure Humidity
    00:00 +2°C° 0.2 mm 1 mps 570 mmHg 94%
    01:00 +2°C° 0.2 mm 1 mps 570 mmHg 94%
    02:00 +2°C° 0.4 mm 1 mps 570 mmHg 95%
    03:00 +1°C° 0.4 mm 2 mps 569 mmHg 95%
    04:00 +1°C° 0.4 mm 2 mps 569 mmHg 96%
    05:00 +1°C° 0.1 mm 2 mps 569 mmHg 95%
    06:00 +2°C° 0.1 mm 2 mps 570 mmHg 94%
    07:00 +2°C° 0.1 mm 2 mps 570 mmHg 93%
    08:00 +3°C° 0 mm 2 mps 571 mmHg 86%
    09:00 +4°C° 0 mm 2 mps 571 mmHg 80%
    10:00 +6°C° 0 mm 2 mps 572 mmHg 74%
    11:00 +6°C° 0.2 mm 2 mps 572 mmHg 74%
    12:00 +6°C° 0.2 mm 2 mps 572 mmHg 74%
    13:00 +6°C° 0.2 mm 2 mps 572 mmHg 74%
    14:00 +6°C° 0.5 mm 2 mps 572 mmHg 77%
    15:00 +5°C° 0.5 mm 3 mps 572 mmHg 80%
    16:00 +4°C° 0.5 mm 3 mps 572 mmHg 82%
    17:00 +4°C° 0.3 mm 3 mps 572 mmHg 84%
    18:00 +4°C° 0.3 mm 2 mps 572 mmHg 86%
    19:00 +4°C° 0.3 mm 2 mps 572 mmHg 88%
    20:00 +3°C° 0.2 mm 2 mps 572 mmHg 90%
    21:00 +3°C° 0.2 mm 2 mps 572 mmHg 92%
    22:00 +2°C° 0.2 mm 2 mps 573 mmHg 94%
    23:00 +2°C° 0.3 mm 2 mps 573 mmHg 93%

    27 July, Thursday

    Time Temperature Precipitation Wind Pressure Humidity
    00:00 +2°C° 0.3 mm 2 mps 573 mmHg 93%
    01:00 +2°C° 0.3 mm 2 mps 573 mmHg 93%
    02:00 +3°C° 0.1 mm 1 mps 573 mmHg 93%
    03:00 +3°C° 0.1 mm 1 mps 573 mmHg 94%
    04:00 +3°C° 0.1 mm 1 mps 573 mmHg 95%
    05:00 +3°C° 0 mm 1 mps 573 mmHg 93%
    06:00 +3°C° 0 mm 2 mps 574 mmHg 91%
    07:00 +4°C° 0 mm 2 mps 574 mmHg 90%
    08:00 +6°C° 0 mm 2 mps 575 mmHg 79%
    09:00 +8°C° 0 mm 2 mps 576 mmHg 69%
    10:00 +10°C° 0 mm 2 mps 577 mmHg 59%
    11:00 +13°C° 0 mm 2 mps 578 mmHg 53%
    12:00 +14°C° 0 mm 2 mps 578 mmHg 46%
    13:00 +15°C° 0 mm 2 mps 579 mmHg 40%
    14:00 +15°C° 0 mm 2 mps 579 mmHg 40%
    15:00 +14°C° 0 mm 3 mps 579 mmHg 40%
    16:00 +14°C° 0 mm 3 mps 579 mmHg 40%
    17:00 +13°C° 0 mm 2 mps 578 mmHg 49%
    18:00 +12°C° 0 mm 2 mps 578 mmHg 58%
    19:00 +10°C° 0 mm 2 mps 578 mmHg 66%
    20:00 +8°C° 0 mm 2 mps 577 mmHg 71%
    21:00 +7°C° 0 mm 1 mps 577 mmHg 76%
    22:00 +5°C° 0 mm 1 mps 576 mmHg 81%
    23:00 +5°C° 0 mm 1 mps 576 mmHg 81%
    Show more